Regional Weather Roundup
Issued by NWS

Home | Current Version | Previous Version | Graphics & Text | Print | Product List | Glossary On
Versions: 1 2 3 4 5 6 7 8 9 10 11 12 13 14 15 16 17 18 19 20 21 22 23 24 25 26 27 28 29 30 31 32 33 34 35 36 37 38 39 40 41 42 43 44 45 46 47 48 49 50
643
ASUS45 KSLC 301610
RWRUT

UTAH REGIONAL WEATHER ROUNDUP
NATIONAL WEATHER SERVICE SALT LAKE CITY UT
1000 AM MDT SUN APR 30 2017

UTZ001>011-023>025-301700-

NORTHERN UTAH

CITY           SKY/WX    TMP DP  RH WIND       PRES   REMARKS
BRIGHAM CITY   PTSUNNY   48  29  47 CALM      30.19S
HILL AFB       MOSUNNY   47  29  50 E7        30.18F
LOGAN          CLOUDY    46  36  68 NW3       30.18S
OGDEN          MOSUNNY   48  27  44 S7        30.18F
SALT LAKE CITY CLOUDY    51  30  44 SE13      30.18F
TOOELE VALLEY  MOSUNNY   52  34  50 S10       30.18F
WENDOVER       NOT AVBL
HEBER CITY     MOSUNNY   37  23  56 CALM      30.19F
WEST JORDAN    MOSUNNY   51  37  59 S13       30.20F

$$

UTZ011>015-024>027-301700-

CENTRAL/NORTHEAST UTAH

CITY           SKY/WX    TMP DP  RH WIND       PRES   REMARKS
PROVO AIRPORT  SUNNY     48  28  46 SE8       30.22F
MOAB/CANYONLAN SUNNY     51  18  27 CALM      30.17S
DELTA          SUNNY     46  23  39 SW8       30.23S
PRICE          SUNNY     48  20  32 VRB3      30.16F
RICHFIELD      SUNNY     45  25  45 CALM      30.25F
ROOSEVELT      SUNNY     43  21  42 CALM      30.18F
VERNAL         SUNNY     43  22  43 VRB5      30.17F

$$

UTZ013>016-019>022-027-301700-

SOUTHERN UTAH

CITY           SKY/WX    TMP DP  RH WIND       PRES   REMARKS
BRYCE CANYON   SUNNY     42  16  34 CALM      30.24F
CEDAR CITY     SUNNY     48  19  31 VRB3      30.23F
MILFORD        SUNNY     47  22  37 S8        30.23F
ST GEORGE      MOSUNNY   56  19  23 SW3       30.22S
HANKSVILLE     SUNNY     50  19  29 CALM      30.20F
KANAB          SUNNY     54  18  24 SE6       30.26F
BLANDING       SUNNY     47  14  26 W3        30.23R

$$

REGIONAL REPORTS     COLORADO/ARIZONA

CITY           SKY/WX    TMP DP  RH WIND       PRES   REMARKS
CRAIG, CO      SUNNY     39  24  55 VRB3      30.16F
GRAND JUNCTION SUNNY     46  18  32 CALM      30.18S
RIFLE, CO      SUNNY     42  20  41 CALM      30.17F
MONTROSE, CO   SUNNY     42  19  39 MISG      30.20F
CORTEZ, CO     SUNNY     48  21  34 N18G26    30.13S
COLORADO CITY    N/A     55  19  24 CALM      30.26S
PAGE, AZ       SUNNY     54  19  25 CALM      30.19F
GRAND CANYON   SUNNY     50   8  18 N9        30.24R
KINGMAN, AZ    SUNNY     64  18  17 N7        30.20R
FLAGSTAFF, AZ  SUNNY     46  12  25 CALM      30.22S

$$

REGIONAL REPORTS    NEVADA/IDAHO/WYOMING

CITY           SKY/WX    TMP DP  RH WIND       PRES   REMARKS
LAS VEGAS, NV  MOSUNNY   67  13  12 VRB3      30.17R
ELY, NY        MOSUNNY   48  20  32 NW3       30.24F
ELKO, NV       MOSUNNY   48  28  46 VRB5      30.20F
POCATELLO, ID  PTSUNNY   53  32  44 SW10      30.12F
BURLEY, ID     PTSUNNY   56  29  35 SW10      30.10F
FORT BRIDGER,    N/A     43  26  50 W14G22    30.19F
EVANSTON, WY   CLOUDY    39  26  59 SW13      30.17F WCI  31
ROCK SPRINGS,  SUNNY     42  23  46 W15       30.13F
KEMMERER, WY     N/A     36  27  69 W9        30.17S WCI  29

$$




USA.gov is the U.S. government's official web portal to all federal, state and local government web resources and services.